Location: Mentone
(34.5413°N, 85.5351°W)
Time: 01:17:18
(UTC-05:00)

Vanguard 3 - All Passes

Search period start: 25 October 2014 00:00
Search period end: 03 November 2014 23:00
Orbit: 508 x 3278 km, 33.3° (Epoch: 24 October)

Date Brightness Start Highest point End Pass type
(mag) Time Alt. Az. Time Alt. Az. Time Alt. Az.
25 Oct - 00:35:14 10° WSW 00:44:35 72° S 00:49:51 10° E night (unlit)
25 Oct - 02:50:39 10° W 02:56:36 72° S 03:00:33 10° ESE night (unlit)
25 Oct - 05:04:37 10° WSW 05:07:41 21° SSW 05:10:31 10° SSE visible
25 Oct - 18:59:15 10° SSE 19:03:42 12° SE 19:07:43 10° SE visible
25 Oct - 21:05:52 10° SSW 21:18:35 33° SSE 21:26:44 10° E visible
25 Oct - 23:20:41 10° WSW 23:32:18 61° SSE 23:38:42 10° E visible
26 Oct - 01:36:57 10° W 01:44:51 81° S 01:49:30 10° E night (unlit)
26 Oct - 03:51:42 10° W 03:56:24 41° SSW 03:59:57 10° SE visible
26 Oct - 19:52:59 10° SSW 20:05:08 24° SSE 20:13:52 10° ESE visible
26 Oct - 22:06:03 10° SW 22:19:34 50° SSE 22:27:18 10° E visible
27 Oct - 00:22:30 10° WSW 00:32:47 78° S 00:38:26 10° E night (unlit)
27 Oct - 02:38:26 10° W 02:44:56 66° SSW 02:49:04 10° ESE night (unlit)
27 Oct - 04:53:12 10° WSW 04:55:52 16° SSW 04:58:16 10° S visible
27 Oct - 18:41:52 10° S 18:51:22 17° SE 18:59:11 10° ESE visible
27 Oct - 20:51:46 10° SW 21:06:22 40° SSE 21:15:27 10° E visible
27 Oct - 23:07:33 10° WSW 23:20:20 69° SSE 23:27:15 10° E visible
28 Oct - 01:24:27 10° W 01:33:07 81° S 01:38:05 10° E night (unlit)
28 Oct - 03:39:43 10° W 03:44:39 35° SSW 03:48:14 10° SE night (unlit)
28 Oct - 19:38:19 10° SSW 19:52:45 31° SSE 20:02:51 10° E visible
28 Oct - 21:52:31 10° SW 22:07:25 59° SSE 22:15:50 10° E visible
29 Oct - 00:09:42 10° W 00:20:55 82° S 00:26:59 10° E visible
29 Oct - 02:26:06 10° W 02:33:12 60° SSW 02:37:34 10° ESE night (unlit)
29 Oct - 04:42:00 10° WSW 04:43:57 13° SW 04:45:43 10° S visible
29 Oct - 18:26:16 10° S 18:38:51 22° SE 18:48:53 10° ESE visible
29 Oct - 20:37:51 10° SW 20:54:02 48° SSE 21:04:00 10° E visible
29 Oct - 22:54:26 10° WSW 23:08:17 76° S 23:15:45 10° E visible
30 Oct - 01:11:51 10° W 01:21:20 79° S 01:26:38 10° ESE night (unlit)
30 Oct - 03:27:41 10° W 03:32:48 29° SSW 03:36:26 10° SSE night (unlit)
30 Oct - 17:17:14 10° SSE 17:24:49 13° SE 17:31:44 10° ESE daylight
30 Oct - 19:23:59 10° SSW 19:40:13 37° SSE 19:51:30 10° E visible
30 Oct - 21:39:04 10° WSW 21:55:10 66° SSE 22:04:17 10° E visible
30 Oct - 23:56:51 10° W 00:09:00 84° S 00:15:31 10° E visible
31 Oct - 02:13:41 10° W 02:21:23 54° SSW 02:26:00 10° SE night (unlit)
31 Oct - 18:11:23 10° SSW 18:26:11 28° SE 18:37:53 10° E visible
31 Oct - 20:24:05 10° SW 20:41:33 55° SSE 20:52:24 10° E visible
31 Oct - 22:41:19 10° WSW 22:56:10 81° S 23:04:13 10° E visible
01 Nov - 00:59:09 10° W 01:09:29 75° SSW 01:15:09 10° ESE night (unlit)
01 Nov - 03:15:36 10° W 03:20:50 25° SW 03:24:33 10° SSE night (unlit)
01 Nov - 17:00:53 10° S 17:12:05 18° SE 17:22:08 10° ESE daylight
01 Nov - 19:09:56 10° SW 19:27:33 44° SSE 19:39:55 10° E visible
01 Nov - 21:25:41 10° WSW 21:42:49 73° SSE 21:52:39 10° E visible
01 Nov - 23:43:55 10° W 23:57:01 84° S 00:04:01 10° E visible
02 Nov - 01:01:11 10° W 01:09:28 48° SSW 01:14:23 10° SE night (unlit)
02 Nov - 16:56:58 10° SSW 17:13:20 33° SE 17:26:28 10° E visible
02 Nov - 19:10:28 10° SW 19:28:58 62° SSE 19:40:41 10° E visible
02 Nov - 21:28:11 10° W 21:44:00 84° S 21:52:38 10° E visible
02 Nov - 23:46:22 10° W 23:57:32 70° SSW 00:03:37 10° ESE night (unlit)
03 Nov - 02:03:31 10° W 02:08:46 22° SW 02:12:32 10° S night (unlit)
03 Nov - 15:45:44 10° S 15:59:10 23° SE 16:11:21 10° E daylight
03 Nov - 17:56:07 10° SW 18:14:44 51° SSE 18:28:09 10° E visible
03 Nov - 20:12:22 10° WSW 20:30:24 78° SSE 20:40:57 10° E visible
03 Nov - 22:30:56 10° W 22:44:57 83° S 22:52:29 10° E visible
